LYSAHORA Weather Reports


time (UTC)temp
F
wind
direction
speed
knots
gust
knots
rain 1hr
in
rain 24hr
in
rain mn
in
humidity
%
barometer
mb
20260507112229 54 0 4.3 0.0 0.00 0.00 0.00 71
20260507102413 54 0 4.3 0.0 0.00 0.00 0.00 71
20260507092213 52 0 4.3 0.0 0.00 0.00 0.00 76
20260507082212 50 0 4.3 0.0 0.00 0.00 0.00 81
20260507072214 50 250 7.8 0.0 0.00 0.00 0.00 87
20260507062212 46 210 10.4 0.0 0.00 0.00 0.00 93
20260507052212 45 200 10.4 0.0 0.00 0.00 0.00 99
20260507042414 45 200 6.1 0.0 0.00 0.00 0.00 99
20260507032213 45 180 15.6 0.0 0.00 0.00 0.00 99
20260507022211 46 170 17.4 0.0 0.00 0.00 0.00 93
20260507012312 46 190 22.6 33.0 0.00 0.00 0.00 93
20260507002212 46 200 19.1 31.3 0.00 0.00 0.00 93
20260506232214 48 190 26.9 42.6 0.00 0.00 0.00 87
20260506222443 50 190 26.9 39.1 0.00 0.00 0.00 81
20260506212227 50 190 26.9 42.6 0.00 0.00 0.00 81
20260506202245 52 190 28.7 39.1 0.00 0.00 0.00 71
20260506192421 52 190 22.6 0.0 0.00 0.00 0.00 71
20260506182317 54 180 22.6 0.0 0.00 0.00 0.00 66
20260506172242 54 180 19.1 28.7 0.00 0.00 0.00 71
20260506162444 55 180 15.6 0.0 0.00 0.00 0.00 62
20260506152300 55 190 10.4 19.1 0.00 0.00 0.00 66
20260506142228 57 200 7.8 0.0 0.00 0.00 0.00 58
20260506132228 57 210 7.8 0.0 0.00 0.00 0.00 58
20260506122228 61 220 6.1 0.0 0.00 0.00 0.00 55